STARLINK-1782 (47548 NORAD) Tracking and Keplerian Element Data
This shows tracking and keplerian element data for the satellite.
Feedback or suggestion? Click here.
Element | Value |
Catalog | 47548 |
Name | STARLINK-1782 |
Epoch Orbit | 1175 |
Epoch Day | 106.25002315 |
Epoch Year | 2021 |
RAAN | 136.3439 |
Inclination | 53.0518 |
Eccentricity | 0.0004001 |
Argument of Perigee | 4.1083 |
Mean Anonmoly | 158.5253 |
Mean Motion | 15.62757472 |
Decay Rate | -6.102E-05 |
L1 | 1 47548U 21009A 21106.25002315 -.00006102 00000-0 -60787-4 0 9991 |
L2 | 2 47548 53.0518 136.3439 0004001 4.1083 158.5253 15.62757472 11751 |
Live tracking and technical data element details for STARLINK-1782 (NORAD 47548). STARLINK-1782 can be tracked NOW for your location showing map with azimuth and elevation plus other details from your city location.
Track the satellite on the map from your city or location and see movement details for azimuth, elevation, latitude, longitude, range, height, and movement on the map or in text.
IsCatalogInMostPopularTable: catalog: 47548, numindb: 15
Update: records affected: 1
GetName: 47548 STARLINK-1782
Hit Count: updated at: Fri, 16 Apr 2021 10:06:17 GMT